Hourly Data Report for October 26, 2016

All times are specified in Local Standard Time (LST). Add 1 hour to adjust for Daylight Saving Time where and when it is observed.

EUREKA CLIMATE
NUNAVUT

79°59'21.000" N
85°56'02.000" W
10.00 m
2401199
71613
NEK

Download Data

Hourly Data (October 2016)
Hourly Data Report for October 26, 2016
Temp Definition
°C
Dew Point Temp Definition
°C
Rel Hum Definition
%
Wind Dir Definition
10's deg

Wind Spd Definition
km/h
Visibility Definition
km
Stn Press Definition
kPa
Hmdx Definition


Wind Chill Definition


Weather Definition


TIME
00:00 -17.4 -19.9 81 15 9   100.82   -24 LegendNANA
01:00 -17.7 -20.2 81 1 7   100.83   -23 LegendNANA
02:00 -17.9 -20.0 83 31 3   100.86   -20 LegendNANA
03:00 -17.5 -19.6 83 15 3   100.88   -20 LegendNANA
04:00 -18.1 -20.7 80 15 8   100.89   -24 LegendNANA
05:00 -19.0 -20.7 86 11 14   100.90   -28 LegendNANA
06:00 -19.1 -20.9 86 12 16   100.94   -28 LegendNANA
07:00 -19.3 -21.0 86 12 14   100.97   -28 LegendNANA
08:00 -19.3 -20.9 87 12 17   100.97   -29 LegendNANA
09:00 -19.0 -20.8 86 11 19   100.98   -29 LegendNANA
10:00 -18.9 -20.7 86 11 19   101.01   -29 LegendNANA
11:00 -19.1 -20.9 85 11 21   101.03   -30 LegendNANA
12:00 -18.7 -20.6 85 12 16   101.06   -28 LegendNANA
13:00 -19.1 -21.1 84 12 18   101.08   -29 LegendNANA
14:00 -19.3 -21.5 83 14 18   101.12   -29 LegendNANA
15:00 -19.7 -21.9 83 14 21   101.17   -30 LegendNANA
16:00 -20.0 -22.2 83 12 21   101.22   -31 LegendNANA
17:00 -20.2 -22.4 83 13 23   101.25   -31 LegendNANA
18:00 -20.3 -22.5 83 12 23   101.29   -32 LegendNANA
19:00 -20.6 -22.6 84 14 30   101.34   -33 LegendNANA
20:00 -20.5 -22.6 83 15 15   101.39   -30 LegendNANA
21:00 -20.6 -22.9 82 15 19   101.43   -31 LegendNANA
22:00 -21.0 -23.3 82 16 10   101.51   -28 LegendNANA
23:00 -21.5 -23.9 81 16 7   101.56   -27 LegendNANA

Notes on Data Quality.

Legend

  • E = Estimated
  • M = Missing
  • NA = Not Available
  • ‡ = Partner data that is not subject to review by the National Climate Archives
Date modified: